Regional Weather Roundup
Issued by NWS

Home | Current Version | Previous Version | Text Only | Print | Product List | Glossary On
Versions: 1 2 3 4 5 6 7 8 9 10 11 12 13 14 15 16 17 18 19 20 21 22 23 24 25 26 27 28 29 30 31 32 33 34 35 36 37 38 39 40 41 42 43 44 45 46 47 48 49 50
000
ASUS45 KBOI 060610
RWRID
WEATHER ROUNDUP FOR IDAHO
NATIONAL WEATHER SERVICE BOISE ID
1200 AM MDT WED MAY 06 2015

NOTE: "FAIR" INDICATES FEW OR NO CLOUDS BELOW 12000 FEET
WITH NO SIGNIFICANT WEATHER AND/OR OBSTRUCTIONS TO VISIBILITY

IDZ012-014-060700-
SOUTHWEST IDAHO


CITY           SKY/WX    TMP DP  RH WIND       PRES   REMARKS
BOISE          CLEAR     54  25  32 NW9       29.85S
CALDWELL       CLEAR     48  23  37 NW12      29.89S
MOUNTAIN HOME  CLEAR     52  24  33 NW16      29.83S
$$

IDZ016-017-060700-
SOUTHCENTRAL IDAHO


CITY           SKY/WX    TMP DP  RH WIND       PRES   REMARKS
BURLEY         PTCLDY    52  23  32 SW14      29.81S
JEROME         MOCLDY    52  19  27 SW15      29.83S
TWIN FALLS     MOCLDY    54  19  25 SW16      29.84R
$$

IDZ019>023-060700-
SOUTHEAST IDAHO


CITY           SKY/WX    TMP DP  RH WIND       PRES   REMARKS
IDAHO FALLS    MOCLDY    49  45  86 CALM      29.80S
POCATELLO      CLEAR     56  25  30 SW16      29.81R
REXBURG        MOCLDY    48  45  89 N3        29.81R
$$

IDZ006-010-011-018-031-032-060700-
CENTRAL IDAHO MOUNTAINS


CITY           SKY/WX    TMP DP  RH WIND       PRES   REMARKS
MCCALL         CLEAR     43  30  60 NW10      29.91S
HAILEY         CLEAR     46  28  49 N6        29.83S
STANLEY          N/A     36  22  56 CALM      29.91S
SALMON         CLOUDY    52  28  40 N13G21    29.85S
CHALLIS        CLEAR     48  33  56 N8        29.83R
$$

IDZ002-004-006-007-026-060700-
NORTHERN IDAHO


CITY           SKY/WX    TMP DP  RH WIND       PRES   REMARKS
LEWISTON       PTCLDY    51  26  37 SW7       29.96S
LOWELL           N/A     44  37  76 N3        29.98R
COEUR D`ALENE  PTCLDY    43  27  52 S6        29.96R
MULLAN PASS    CLEAR     33  21  61 VRB6      29.94F WCI  28
$$


USA.gov is the U.S. government's official web portal to all federal, state and local government web resources and services.